Weather History for Oshkosh, WI

Change the Weather History Date:

Sunday, September 8, 2013

  Actual Average Record
Temperature  
Mean Temperature 67 °F -  
Max Temperature 73 °F 76 °F 93 °F (1959)
Min Temperature 62 °F 54 °F 38 °F (1986)
Cooling Degree Days 2    
Growing Degree Days 17 (Base 50)    
Moisture  
Dew Point 58 °F    
Average Humidity 74    
Maximum Humidity 84    
Minimum Humidity 64    
Precipitation  
Precipitation 0.00 in - - ()
Sea Level Pressure  
Sea Level Pressure 30.04 in    
Wind  
Wind Speed 11 mph (East)    
Max Wind Speed 16 mph    
Max Gust Speed 23 mph    
Visibility 10 miles    
Events      
Averages and records for this station are not official NWS values.
T = Trace of Precipitation, MM = Missing Value Source: NWS Daily Summary

Daily Weather History Graph

Daily Weather History Graph

Search for Another Location

Airport:

Trip Planner

Search our weather history database for the weather conditions in past years. The results will help you decide how hot, cold, wet, or windy it might be!

Date:

Astronomy

Sep. 08, 2013 Rise Set
Actual Time 6:25 AM CDT 7:17 PM CDT
Civil Twilight 5:56 AM CDT 7:46 PM CDT
Nautical Twilight 5:21 AM CDT 8:20 PM CDT
Astronomical Twilight 4:45 AM CDT 8:57 PM CDT
Moon 9:51 AM CDT (9/8) 8:42 PM CDT (9/8)
Length of Visible Light 13h 49m
Length of Day
12h 51m
Waxing Crescent, 11% of the Moon is Illuminated
Sep 8
Waxing Crescent
Sep 12
First Quarter
Sep 19
Full
Sep 26
Last Quarter
Oct 4
New

Hourly Weather History & Observations

Time (CDT) Temp. Dew Point Humidity Pressure Visibility Wind Dir Wind Speed Gust Speed Precip Events Conditions
12:53 AM 66.0 °F 60.1 °F 81% 30.04 in 10.0 mi NE 12.7 mph 20.7 mph N/A   Overcast
1:02 AM 66.2 °F 59.0 °F 78% 30.06 in 10.0 mi ENE 12.7 mph 23.0 mph N/A   Overcast
1:24 AM 66.2 °F 57.2 °F 73% 30.07 in 10.0 mi NE 16.1 mph 23.0 mph N/A   Overcast
1:53 AM 66.0 °F 57.0 °F 73% 30.03 in 10.0 mi NE 13.8 mph - N/A   Mostly Cloudy
2:53 AM 64.9 °F 57.9 °F 78% 30.03 in 10.0 mi NE 9.2 mph 20.7 mph N/A   Partly Cloudy
3:53 AM 64.0 °F 57.0 °F 78% 30.03 in 10.0 mi NE 11.5 mph - N/A   Scattered Clouds
4:37 AM 64.4 °F 57.2 °F 77% 30.08 in 10.0 mi NE 11.5 mph - N/A   Mostly Cloudy
4:53 AM 63.0 °F 57.0 °F 81% 30.05 in 10.0 mi NE 8.1 mph 18.4 mph N/A   Overcast
5:53 AM 63.0 °F 57.9 °F 84% 30.05 in 10.0 mi NE 11.5 mph - N/A   Scattered Clouds
6:53 AM 63.0 °F 57.9 °F 84% 30.06 in 10.0 mi NE 9.2 mph - N/A   Overcast
7:53 AM 63.0 °F 57.0 °F 81% 30.06 in 10.0 mi ENE 13.8 mph 19.6 mph N/A   Clear
8:19 AM 62.6 °F 57.2 °F 82% 30.09 in 10.0 mi ENE 9.2 mph 19.6 mph N/A   Mostly Cloudy
8:53 AM 64.9 °F 57.9 °F 78% 30.06 in 10.0 mi East 12.7 mph 19.6 mph N/A   Overcast
9:19 AM 66.2 °F 57.2 °F 73% 30.09 in 10.0 mi East 13.8 mph 19.6 mph N/A   Partly Cloudy
9:53 AM 66.9 °F 57.9 °F 73% 30.07 in 10.0 mi ENE 11.5 mph 19.6 mph N/A   Clear
10:39 AM 69.8 °F 57.2 °F 64% 30.11 in 10.0 mi East 12.7 mph 19.6 mph N/A   Mostly Cloudy
10:53 AM 69.1 °F 59.0 °F 70% 30.08 in 10.0 mi ENE 10.4 mph 19.6 mph N/A   Overcast
11:17 AM 69.8 °F 59.0 °F 68% 30.11 in 10.0 mi East 11.5 mph - N/A   Overcast
11:53 AM 70.0 °F 59.0 °F 68% 30.08 in 10.0 mi East 10.4 mph - N/A   Overcast
12:53 PM 71.1 °F 60.1 °F 68% 30.06 in 10.0 mi ESE 9.2 mph - N/A   Overcast
1:53 PM 71.1 °F 60.1 °F 68% 30.05 in 10.0 mi ESE 8.1 mph - N/A   Overcast
2:53 PM 72.0 °F 60.1 °F 66% 30.03 in 10.0 mi East 10.4 mph - N/A   Overcast
3:53 PM 71.1 °F 60.1 °F 68% 30.02 in 10.0 mi East 8.1 mph - N/A   Overcast
4:53 PM 71.1 °F 60.1 °F 68% 30.01 in 10.0 mi ESE 6.9 mph - N/A   Mostly Cloudy
5:53 PM 70.0 °F 61.0 °F 73% 29.99 in 10.0 mi ESE 9.2 mph - N/A   Scattered Clouds
6:53 PM 68.0 °F 60.1 °F 76% 29.97 in 10.0 mi SE 8.1 mph - N/A   Clear
7:53 PM 66.9 °F 60.1 °F 79% 29.99 in 10.0 mi ESE 4.6 mph - N/A   Clear
8:53 PM 66.9 °F 57.9 °F 73% 30.00 in 10.0 mi ENE 5.8 mph - N/A   Clear
9:53 PM 66.0 °F 57.0 °F 73% 29.99 in 10.0 mi East 5.8 mph - N/A   Clear
10:53 PM 66.0 °F 57.0 °F 73% 29.97 in 10.0 mi SE 5.8 mph - N/A   Overcast
11:53 PM 64.9 °F 57.9 °F 78% 29.97 in 10.0 mi Calm Calm - N/A   Overcast